[TLELIST] Archives

 

[TLELIST] Current TLEs

November 10th 2023 PDT

HST 1 20580U 90037B 23313.56809101 .00006336 00000-0 32250-3 0 9999 2 20580 28.4705 19.6848 0002953 147.8991 352.2338 15.14777485643511 HST 1 20580U 90037B 23313.56809101 .00006336 00000-0 32250-3 0 9999 2 20580 28.4705 19.6848 0002953 147.8991 352.2338 15.14777485643780 ISS (ZARYA) 1 25544U 98067A 23314.38198044 .00100698 00000-0 17797-2 0 9997 2 25544 51.6421 324.3889 0002427 274.3636 230.5917 15.49520642424469 CXO 1 25867U 99040B 23316.03353944 .00000893 00000-0 00000-0 0 999 ...Continue Reading

[TLELIST] Current TLEs

November 10th 2023 PDT

HST 1 20580U 90037B 23313.56809101 .00006336 00000-0 32250-3 0 9999 2 20580 28.4705 19.6848 0002953 147.8991 352.2338 15.14777485643511 HST 1 20580U 90037B 23313.56809101 .00006336 00000-0 32250-3 0 9999 2 20580 28.4705 19.6848 0002953 147.8991 352.2338 15.14777485643780 ISS (ZARYA) 1 25544U 98067A 23314.38198044 .00100698 00000-0 17797-2 0 9997 2 25544 51.6421 324.3889 0002427 274.3636 230.5917 15.49520642424469 CXO 1 25867U 99040B 23316.03353944 .00000893 00000-0 00000-0 0 999 ...Continue Reading

[TLELIST] Current TLEs

November 9th 2023 PDT

HST 1 20580U 90037B 23312.91324501 .00006550 00000-0 33381-3 0 9997 2 20580 28.4705 24.0521 0002978 141.6192 20.4061 15.14769359643418 ISS (ZARYA) 1 25544U 98067A 23313.48047773 .00055397 00000-0 96054-3 0 9998 2 25544 51.6436 328.8525 0001280 74.6781 77.0191 15.50331811424322 CXO 1 25867U 99040B 23316.03325456 .00000893 00000-0 00000+0 0 9992 2 25867 37.6161 177.9285 9034193 277.8832 0.1380 0.37818558 24899 ...Continue Reading

[TLELIST] Current TLEs

November 8th 2023 PDT

HST 1 20580U 90037B 23311.57181200 .00007306 00000-0 37363-3 0 9999 2 20580 28.4705 32.9980 0003044 128.4294 264.0069 15.14750947643211 ISS (ZARYA) 1 25544U 98067A 23312.38093591 .00013945 00000-0 24951-3 0 9995 2 25544 51.6428 334.3064 0001085 100.8606 30.1667 15.50269558424151 CXO 1 25867U 99040B 23313.38850794 .00000898 00000-0 00000-0 0 9991 2 25867 37.5986 178.2323 9037772 277.6394 0.0473 0.37818843 13726 ...Continue Reading

[TLELIST] Current TLEs

November 7th 2023 PDT

HST 1 20580U 90037B 23310.93544118 .00009766 00000-0 50278-3 0 9991 2 20580 28.4704 37.2416 0003061 122.1450 33.1910 15.14740404643381 ISS (ZARYA) 1 25544U 98067A 23311.48365316 .00023963 00000-0 42288-3 0 9996 2 25544 51.6442 338.7538 0000982 86.1759 73.8734 15.50248001424015 CXO 1 25867U 99040B 23313.38850794 .00000898 00000-0 00000-0 0 9991 2 25867 37.5986 178.2323 9037772 277.6394 0.0473 0.37818843 13726 ...Continue Reading

[TLELIST] Current TLEs

November 7th 2023 PDT

HST 1 20580U 90037B 23310.93544118 .00009766 00000-0 50278-3 0 9991 2 20580 28.4704 37.2416 0003061 122.1450 33.1910 15.14740404643381 ISS (ZARYA) 1 25544U 98067A 23311.48365316 .00023963 00000-0 42288-3 0 9996 2 25544 51.6442 338.7538 0000982 86.1759 73.8734 15.50248001424015 CXO 1 25867U 99040B 23313.38850794 .00000898 00000-0 00000-0 0 9991 2 25867 37.5986 178.2323 9037772 277.6394 0.0473 0.37818843 13726 ...Continue Reading

[TLELIST] Current TLEs

November 7th 2023 PDT

HST 1 20580U 90037B 23310.93544118 .00009766 00000-0 50278-3 0 9991 2 20580 28.4704 37.2416 0003061 122.1450 33.1910 15.14740404643381 ISS (ZARYA) 1 25544U 98067A 23311.48365316 .00023963 00000-0 42288-3 0 9996 2 25544 51.6442 338.7538 0000982 86.1759 73.8734 15.50248001424015 CXO 1 25867U 99040B 23313.38850794 .00000898 00000-0 00000-0 0 9991 2 25867 37.5986 178.2323 9037772 277.6394 0.0473 0.37818843 13726 ...Continue Reading

[TLELIST] Current TLEs

November 6th 2023 PDT

HST 1 20580U 90037B 23309.67613080 .00011869 00000-0 61345-3 0 9999 2 20580 28.4701 45.6391 0003151 110.3711 4.2422 15.14717115643180 ISS (ZARYA) 1 25544U 98067A 23310.44789308 .00026493 00000-0 46746-3 0 9996 2 25544 51.6441 343.8812 0001018 84.6791 51.1776 15.50192463423852 CXO 1 25867U 99040B 23313.38834949 .00000898 00000-0 00000+0 0 9994 2 25867 37.5986 178.2325 9037766 277.6393 0.0260 0.37818860 24882 ...Continue Reading

[TLELIST] Current TLEs

November 6th 2023 PDT

HST 1 20580U 90037B 23309.67613080 .00011869 00000-0 61345-3 0 9999 2 20580 28.4701 45.6391 0003151 110.3711 4.2422 15.14717115643180 ISS (ZARYA) 1 25544U 98067A 23310.44789308 .00026493 00000-0 46746-3 0 9996 2 25544 51.6441 343.8812 0001018 84.6791 51.1776 15.50192463423852 CXO 1 25867U 99040B 23313.38834949 .00000898 00000-0 00000+0 0 9994 2 25867 37.5986 178.2325 9037766 277.6393 0.0260 0.37818860 24882 ...Continue Reading

[TLELIST] Current TLEs

November 6th 2023 PDT

HST 1 20580U 90037B 23309.67613080 .00011869 00000-0 61345-3 0 9999 2 20580 28.4701 45.6391 0003151 110.3711 4.2422 15.14717115643180 ISS (ZARYA) 1 25544U 98067A 23310.44789308 .00026493 00000-0 46746-3 0 9996 2 25544 51.6441 343.8812 0001018 84.6791 51.1776 15.50192463423852 CXO 1 25867U 99040B 23313.38834949 .00000898 00000-0 00000+0 0 9994 2 25867 37.5986 178.2325 9037766 277.6393 0.0260 0.37818860 24882 ...Continue Reading
  • This mailing list is a public mailing list - anyone may join or leave, at any time.
  • This mailing list is announce-only.

International Space Station (ISS) / Hubble Space Telescope (HST) / Chandra X-Ray Observatory Orbital Data via EMAIL

Privacy Policy:

Private list